Preview of NWS' New Version of Forecast
This preview is not operational and should not be used for support decisions.

Regional Weather Roundup (RWR)

Issued by National Weather Service (NWS)

                            
000
ASUS43 KMKX 190321
RWRWI 

WISCONSIN REGIONAL WEATHER ROUNDUP
NATIONAL WEATHER SERVICE MILWAUKEE/SULLIVAN WI
1000 PM CDT SUN AUG 18 2019

NOTE: "FAIR" INDICATES FEW OR NO CLOUDS BELOW 12,000 FEET WITH NO
SIGNIFICANT WEATHER AND/OR OBSTRUCTIONS TO VISIBILITY.

WIZ001-002-006>008-014>016-023>028-190400-
NORTHWEST WISCONSIN
  
CITY           SKY/WX    TMP DP  RH WIND       PRES   REMARKS
SUPERIOR ARPT  FAIR      56  48  74 CALM      29.86R                  
ASHLAND        FAIR      53  48  83 SW8       29.86R                  
HAYWARD        FAIR      53  50  89 CALM      29.89R                  
SIREN          FAIR      56  50  80 CALM      29.90R                  
CUMBERLAND     FAIR      54  52  94 CALM      29.91R                  
RICE LAKE      FAIR      55  41  58 CALM      29.92R                  
CHETEK         FAIR      57  55  93 CALM      29.90S                  
LADYSMITH      FAIR      61  53  76 CALM      29.91S                  
EAU CLAIRE     FAIR      62  55  77 NW3       29.88R                  
MENOMONIE      FAIR      58  53  83 W5        29.90S                  
NEW RICHMOND   FAIR      56  53  89 CALM      29.91R                  
OSCEOLA        FAIR      56  56  99 CALM      29.94R                  
$$
 
WIZ003>005-009-010-017-018-190400-
NORTH CENTRAL WISCONSIN
  
CITY           SKY/WX    TMP DP  RH WIND       PRES   REMARKS
MANITOWISH WTR FAIR      50  50 100 CALM      29.88R FOG              
ARBOR VITAE    FAIR      57  54  90 CALM      29.88R                  
WOODRUFF       FAIR      57  54  90 CALM      29.88R                  
RHINELANDER    FAIR      53  50  89 W5        29.88R                  
EAGLE RIVER    FAIR      51  51 100 CALM      29.87S                  
LAND O LAKES   FAIR      51  50  99 W3        29.89R                  
PHILLIPS       FAIR      56  54  94 CALM      29.89R                  
TOMAHAWK       FAIR      53  51  95 CALM      29.89S                  
MEDFORD        FAIR      56  51  82 NW3       29.89R                  
MERRILL        FAIR      57  56  95 CALM      29.88S                  
$$
 
WIZ029-030-035-036-043>047-190400-
CENTRAL WISCONSIN
  
CITY           SKY/WX    TMP DP  RH WIND       PRES   REMARKS
WAUSAU         FAIR      62  55  77 W8        29.87R                  
MOSINEE        FAIR      61  55  82 W6        29.89R                  
MARSHFIELD     FAIR      59  56  89 SW3       29.89R                  
STEVENS POINT  FAIR      64  56  76 W3        29.89R                  
WAUPACA        FAIR      66  62  86 W5        29.89R                  
WAUTOMA        MOCLDY    65  63  93 CALM      29.89R                  
WISC RAPIDS    FAIR      63  57  81 W3        29.90R                  
CAMP DOUGLAS   FAIR      60  60 100 CALM      29.89R                  
$$
 
WIZ011>013-019>022-031-037>040-048>050-190400-
NORTHEAST WISCONSIN
  
CITY           SKY/WX    TMP DP  RH WIND       PRES   REMARKS
ANTIGO         FAIR      56  55  94 CALM      29.88R                  
SHAWANO        FAIR      67  60  77 W5        29.86R                  
OCONTO         FAIR      66  61  84 NW3       29.84R                  
STURGEON BAY   MOCLDY    70  64  81 NW7       29.85R                  
GREEN BAY      FAIR      67  62  84 W5        29.86R                  
MANITOWOC      FAIR      68  63  84 W5        29.87R                  
APPLETON       PTCLDY    68  57  68 W7        29.86R                  
CLINTONVILLE   FAIR      65  58  78 W6        29.87R                  
OSHKOSH        MOCLDY    69  62  78 CALM      29.87R                  
$$
 
WIZ032>034-041-042-053>061-190400-
SOUTHWEST WISCONSIN
  
CITY           SKY/WX    TMP DP  RH WIND       PRES   REMARKS
LA CROSSE      FAIR      68  59  73 W3        29.89R                  
SPARTA         FAIR      58  56  95 CALM      29.91R                  
VIROQUA        FAIR      64  63  96 NW3       29.92R                  
BOSCOBEL       FAIR      66  64  93 CALM      29.89R                  
PRAIRIE DU CHI FAIR      67  64  91 CALM      29.89R                  
PLATTEVILLE    FAIR      67  67 100 S5        29.92R                  
$$

WIZ056-057-062-063-064-067-068-190400-
SOUTH CENTRAL WISCONSIN
  
CITY           SKY/WX    TMP DP  RH WIND       PRES   REMARKS
REEDSBURG      FAIR      65  65 100 CALM      29.90R                  
BARABOO/DELLS  MOCLDY    64  62  92 CALM      29.90R                  
LONE ROCK      FAIR      67  64  90 CALM      29.89R                  
MINERAL POINT    N/A     70  70 100 MISG      29.92R                  
MADISON        MOCLDY    69  64  84 SW5       29.89R                  
MIDDLETON      FAIR      65  28  25 CALM      29.90R                  
WATERTOWN      FAIR      65  65 100 SW3       29.89R                  
MONROE         FAIR      68  65  91 SW6       29.92R                  
JANESVILLE     FAIR      68  68 100 CALM      29.91R                  
$$
 
WIZ051-052-058>065-066-070>072-190400-
SOUTHEAST WISCONSIN
  
CITY           SKY/WX    TMP DP  RH WIND       PRES   REMARKS
MILWAUKEE      FAIR      72  63  73 SW5       29.89R                  
WAUKESHA       FAIR      64  61  88 SW5       29.91R                  
MILWAUKEE/TIMM FAIR      68  59  73 CALM      29.90R                  
RACINE         FAIR      70  63  78 SW5       29.91R                  
KENOSHA        FAIR      68  65  90 SW5       29.91R                  
FOND DU LAC    FAIR      69  63  81 SW6       29.88R                  
SHEBOYGAN      FAIR      65  61  87 SW6       29.87R                  
WEST BEND      FAIR      64  63  94 CALM      29.89R                  
JUNEAU         FAIR      65  63  93 CALM      29.91R                  
$$

LSZ147-162-190400-
LAKE SUPERIOR
  
STATION/POSITION TIME  TEMP    WIND        PRES    WAVE
                       AIR SEA DIR/SP/G            HT/PER
                 (UTC) (F)     (DEG/KT/KT) (MB)    (FT/S)
W MID LAKE BUOY  0250   65 63  260/ 10/ 10 1008.5R   1/ 3
DEVILS ISLAND    0300   68     260/ 15/ 18 1009.7R
SAXON HARBOR     0240   59     200/  7/  8 1010.2R
$$
 
LMZ867-665-643>646-190400-
LAKE MICHIGAN
  
STATION/POSITION TIME  TEMP    WIND        PRES    WAVE
                       AIR SEA DIR/SP/G            HT/PER
                 (UTC) (F)     (DEG/KT/KT) (MB)    (FT/S)
S GREEN BAY BUOY 0300   76 69  270/ 10/ 12 1010.5R
N MID LAKE BUOY  0300   70     320/ 19/ 25 1010.0
NORTHPORT PIER   0240   70     300/ 10/ 12 1009.5R
KEWAUNEE LAKESHO 0248   69     260/  5/  8 1009.8R
SHEBOYGAN LAKESH 0300   71     230/  7/  7 1011.5R
PORT WASHINGTON  0230   72     260/  3/  6 1012.5R
S MID LAKE BUOY  0300   74     270/ 10/ 14 1012.3
KENOSHA   LAKESH 0300   74     230/  5/  7 1012.2
$$

TC  - TEMPERATURE IN CELSIUS
VSB - VISIBILITY IN STATUTE MILES
WCI - WIND CHILL INDEX
HX  - HEAT INDEX